Погода в Конфолане

Франция     46°02′02″N   0°38′40″E
темп.,
°C
ветер,
м/с
пор.,
м/с
влажн.,
%
обл.,
%
осадки,
мм/ч
давл.,
гПа
погр.,
м
25 февраля, чт
чт2501:00+10ююв3126633 0.0 1028301
04:00+9ююв3126063 0.0 1026306
07:00+8ююв296581 0.0 1027256
10:00+11ююв396075 0.0 1028312
13:00+15ю365788 0.0 1028439
16:00+16юз2561100 0.0 1028734
19:00+10ююз1190100 0.0 102922
22:00+9ююв1196100 0.0 103122
26 февраля, пт
пт2601:00+8ююв1196100 0.0 103222
04:00+7юв119740 0.0 103222
07:00+6с019730 0.0 103222
10:00+11св128629 0.0 1033232
13:00+10с358861 0.0 1033352
16:00+10с378499 0.0 1032527
19:00+8ссв289293 0.0 1032486
22:00+5ссв299911 0.0 1033336
27 февраля, сб
сб2701:00+6ссв3129619 0.0 1034517
04:00+6св4119228 0.0 1033511
07:00+5св3119334 0.0 1034496
10:00+7св411744 0.0 1034580
13:00+10св49572 0.0 1034841
16:00+10ссв49560 0.0 1032927
19:00+6св311760 0.0 1031806
22:00+5св312820 0.0 1032718
28 февраля, вс
вс2801:00+3св311860 0.0 1030482
04:00+2св310870 0.0 1029421
07:00+2св39850 0.0 1028349
10:00+5всв25730 0.0 1028269
13:00+13вюв25580 0.0 10271311
16:00+14юв145956 0.0 10251436
19:00+10св278466 0.2 1025243
22:00+8в278770 0.0 1026220
1 марта, пн
пн101:00+7юв258784 0.0 1026132
04:00+5в128819 0.0 102544
07:00+5в228810 0.0 102447
10:00+11юв28640 0.0 1024390
13:00+15юв25556 0.0 1024877
16:00+16юв245633 0.0 10221075
19:00+10ююв128416 0.0 102222
22:00+8ююв28890 0.0 1024234